ASTRA 1D

Track ASTRA 1D now!
ASTRA 1D is classified as:


NORAD ID: 23331
Int'l Code: 1994-070A
Perigee: 35,770.9 km
Apogee: 35,815.3 km
Inclination: 6.3 °
Period: 1,436.1 minutes
Semi major axis: 42164 km
RCS: 75.2376 m2 (large)
Launch date: November 1, 1994
Source: Luxembourg (LUXE)

Primarily backup for Astra 1B and 1C; 18 Ku-band transponders; continental Europe.
Your satellite tracking list
Your tracking list is empty





NASA's NSSDC Master Catalog

Two Line Element Set (TLE):
1 23331U 94070A   15125.48242795 -.00000277  00000-0  00000+0 0  9993
2 23331 006.3087 055.4738 0005262 359.5280 274.1108 01.00274139 75504

Source of the keplerian elements: AFSPC

N2YO: 4532